Broken Bow, NE

4:01 PM CDT on July 22, 2017 (GMT -0500)
Broken Bow Municipal

Weather History for KBBW - May, 2013

Change the Weather History Date:

Wednesday, May 8, 2013

  Actual Average Record
Temperature  
Mean Temperature 61 °F 56 °F  
Max Temperature 74 °F 69 °F 110 °F (1895)
Min Temperature 48 °F 43 °F 21 °F (1980)
Degree Days  
Heating Degree Days 4 9  
Month to date heating degree days 106 84  
Cooling Degree Days 0 1  
Month to date cooling degree days 0 1  
Year to date cooling degree days 0 2  
Growing Degree Days 12 (Base 50)    
Moisture  
Dew Point 50 °F    
Average Humidity 67    
Maximum Humidity 100    
Minimum Humidity 34    
Precipitation  
Precipitation 0.03 in 0.09 in 1.74 in (1921)
Sea Level Pressure  
Sea Level Pressure 29.92 in    
Wind  
Wind Speed 6 mph (NNE)    
Max Wind Speed 18 mph    
Max Gust Speed 31 mph    
Visibility 8 miles    
Events Rain    
T = Trace of Precipitation, MM = Missing Value Source: NWS Daily Summary

Daily Weather History Graph

Daily Weather History Graph

Search for Another Location

Airport or City:

Trip Planner

Search our weather history database for the weather conditions in past years. The results will help you decide how hot, cold, wet, or windy it might be!

Date:

Astronomy

May. 08, 2013 Rise Set
Actual Time 6:26 AM CDT 8:43 PM CDT
Civil Twilight 5:55 AM CDT 9:14 PM CDT
Nautical Twilight 5:17 AM CDT 9:53 PM CDT
Astronomical Twilight 4:35 AM CDT 10:35 PM CDT
Moon 5:36 AM CDT (5/8) 7:43 PM CDT (5/8)
Length of Visible Light 15h 19m
Length of Day
14h 17m
Waning Crescent, 2% of the Moon is Illuminated
May 8
Waning Crescent
May 9
New
May 17
First Quarter
May 24
Full
May 31
Last Quarter

Hourly Weather History & Observations

Time (CDT) Temp. Dew Point Humidity Pressure Visibility Wind Dir Wind Speed Gust Speed Precip Events Conditions
12:53 AM 55.0 °F 53.1 °F 93% 29.92 in 8.0 mi Calm Calm - N/A   Overcast
1:53 AM 54.0 °F 53.1 °F 97% 29.92 in 7.0 mi North 6.9 mph - 0.02 in   Mostly Cloudy
2:25 AM 53.6 °F 53.6 °F 100% 29.94 in 9.0 mi NNW 3.5 mph - N/A   Overcast
2:53 AM 53.1 °F 51.1 °F 93% 29.92 in 10.0 mi North 6.9 mph - N/A   Overcast
3:12 AM 53.6 °F 50.0 °F 88% 29.94 in 10.0 mi North 4.6 mph - N/A   Overcast
3:53 AM 53.1 °F 50.0 °F 89% 29.91 in 8.0 mi South 4.6 mph - 0.00 in Rain Light Rain
4:27 AM 51.8 °F 51.8 °F 100% 29.90 in 9.0 mi South 9.2 mph - 0.01 in Rain Light Rain
4:53 AM 53.1 °F 51.1 °F 93% 29.86 in 8.0 mi SSE 5.8 mph - 0.01 in Rain Light Rain
5:20 AM 53.6 °F 51.8 °F 94% 29.88 in 3.0 mi SSE 8.1 mph - 0.00 in   Overcast
5:28 AM 53.6 °F 53.6 °F 100% 29.89 in 2.5 mi SSE 10.4 mph - 0.00 in   Overcast
5:53 AM 53.1 °F 53.1 °F 100% 29.88 in 3.0 mi SSW 6.9 mph - 0.00 in   Overcast
6:51 AM 53.6 °F 51.8 °F 94% 29.91 in 2.0 mi South 5.8 mph - 0.00 in   Overcast
6:53 AM 53.1 °F 52.0 °F 96% 29.89 in 2.0 mi South 3.5 mph - 0.00 in   Overcast
7:03 AM 53.6 °F 51.8 °F 94% 29.90 in 1.8 mi Calm Calm - N/A   Overcast
7:24 AM 53.6 °F 51.8 °F 94% 29.91 in 2.0 mi Calm Calm - N/A   Overcast
7:53 AM 53.1 °F 52.0 °F 96% 29.91 in 3.0 mi Calm Calm - N/A   Overcast
8:53 AM 53.1 °F 52.0 °F 96% 29.94 in 4.0 mi NW 5.8 mph - N/A   Overcast
9:53 AM 55.0 °F 53.1 °F 93% 29.94 in 6.0 mi NE 3.5 mph - N/A   Overcast
10:06 AM 55.4 °F 53.6 °F 94% 29.96 in 6.0 mi Calm Calm - N/A   Overcast
10:23 AM 55.4 °F 51.8 °F 88% 29.96 in 9.0 mi South 13.8 mph 31.1 mph N/A   Overcast
10:40 AM 57.2 °F 53.6 °F 88% 29.96 in 10.0 mi Calm Calm - N/A   Overcast
10:53 AM 57.9 °F 53.1 °F 84% 29.95 in 10.0 mi Calm Calm - N/A   Mostly Cloudy
11:09 AM 60.8 °F 53.6 °F 77% 29.97 in 10.0 mi Calm Calm - N/A   Scattered Clouds
11:53 AM 62.1 °F 55.0 °F 78% 29.94 in 10.0 mi Calm Calm - N/A   Clear
12:53 PM 66.9 °F 51.1 °F 57% 29.92 in 10.0 mi North 5.8 mph - N/A   Scattered Clouds
1:53 PM 68.0 °F 48.9 °F 50% 29.91 in 10.0 mi Variable 3.5 mph - N/A   Clear
2:53 PM 71.1 °F 48.0 °F 44% 29.90 in 10.0 mi NE 5.8 mph - N/A   Partly Cloudy
3:53 PM 72.0 °F 46.0 °F 40% 29.88 in 10.0 mi Calm Calm - N/A   Partly Cloudy
4:53 PM 73.0 °F 45.0 °F 37% 29.87 in 10.0 mi NNW 12.7 mph 19.6 mph N/A   Partly Cloudy
5:53 PM 72.0 °F 41.0 °F 33% 29.87 in 10.0 mi NNE 12.7 mph 19.6 mph N/A   Partly Cloudy
6:53 PM 68.0 °F 43.0 °F 40% 29.89 in 10.0 mi NNE 11.5 mph - N/A   Partly Cloudy
7:53 PM 68.0 °F 43.0 °F 40% 29.91 in 10.0 mi NNE 12.7 mph - N/A   Clear
8:53 PM 63.0 °F 43.0 °F 48% 29.94 in 10.0 mi NNE 11.5 mph - N/A   Clear
9:53 PM 57.0 °F 44.1 °F 62% 29.94 in 10.0 mi NNE 8.1 mph - N/A   Clear
10:53 PM 52.0 °F 44.1 °F 74% 29.96 in 10.0 mi North 6.9 mph - N/A   Clear
11:53 PM 48.0 °F 44.1 °F 86% 29.97 in 10.0 mi North 5.8 mph - N/A   Clear